TimeCST,TemperatureF,Dew PointF,Humidity,Sea Level PressureIn,VisibilityMPH,Wind Direction,Wind SpeedMPH,Gust SpeedMPH,PrecipitationIn,Events,Conditions,WindDirDegrees,DateUTC
12:15 AM,6.6,0.9,77,30.61,10.0,West,6.9,-,N/A,,Clear,270,2014-01-24 06:15:00
12:35 AM,6.3,1.0,79,30.60,10.0,West,6.9,-,N/A,,Clear,260,2014-01-24 06:35:00
12:55 AM,6.6,1.4,79,30.59,10.0,West,6.9,-,N/A,,Clear,260,2014-01-24 06:55:00
1:15 AM,6.3,0.7,78,30.59,10.0,West,5.8,-,N/A,,Clear,260,2014-01-24 07:15:00
1:35 AM,6.3,0.7,78,30.58,10.0,West,5.8,-,N/A,,Clear,260,2014-01-24 07:35:00
1:55 AM,7.9,3.2,81,30.57,10.0,SW,6.9,-,N/A,,Clear,230,2014-01-24 07:55:00
2:15 AM,7.7,2.7,80,30.57,10.0,SW,5.8,-,N/A,,Clear,230,2014-01-24 08:15:00
2:35 AM,8.8,3.7,80,30.56,10.0,SSW,6.9,-,N/A,,Clear,210,2014-01-24 08:35:00
2:55 AM,8.6,3.2,79,30.56,10.0,SW,6.9,-,N/A,,Clear,220,2014-01-24 08:55:00
3:15 AM,8.6,3.4,79,30.55,10.0,SW,6.9,-,N/A,,Clear,220,2014-01-24 09:15:00
3:35 AM,8.6,3.0,78,30.54,10.0,SW,6.9,-,N/A,,Clear,220,2014-01-24 09:35:00
3:55 AM,7.7,2.3,79,30.53,10.0,SW,8.1,-,N/A,,Clear,230,2014-01-24 09:55:00
4:15 AM,9.1,3.6,78,30.51,10.0,SW,9.2,-,N/A,,Clear,220,2014-01-24 10:15:00
4:35 AM,10.6,4.8,78,30.50,10.0,SW,10.4,-,N/A,,Clear,230,2014-01-24 10:35:00
4:55 AM,11.1,4.6,75,30.49,10.0,SW,6.9,-,N/A,,Clear,220,2014-01-24 10:55:00
5:15 AM,11.7,5.0,75,30.48,10.0,SW,9.2,-,N/A,,Clear,230,2014-01-24 11:15:00
5:35 AM,11.7,5.5,76,30.48,10.0,SW,8.1,-,N/A,,Clear,230,2014-01-24 11:35:00
5:55 AM,12.0,5.9,76,30.46,10.0,SW,10.4,-,N/A,,Clear,220,2014-01-24 11:55:00
6:15 AM,11.3,5.5,78,30.46,10.0,SW,8.1,-,N/A,,Clear,230,2014-01-24 12:15:00
6:35 AM,11.1,5.5,78,30.45,10.0,SW,8.1,-,N/A,,Clear,230,2014-01-24 12:35:00
6:55 AM,12.9,7.2,78,30.44,10.0,SW,9.2,-,N/A,,Clear,230,2014-01-24 12:55:00
7:15 AM,13.1,7.2,77,30.43,10.0,SW,10.4,-,N/A,,Clear,220,2014-01-24 13:15:00
7:35 AM,14.2,7.9,76,30.43,10.0,SW,9.2,-,N/A,,Clear,230,2014-01-24 13:35:00
7:55 AM,14.7,8.6,77,30.42,10.0,SW,10.4,-,N/A,,Clear,220,2014-01-24 13:55:00
8:15 AM,15.6,9.7,77,30.42,10.0,SW,12.7,-,N/A,,Clear,230,2014-01-24 14:15:00
8:35 AM,17.8,10.9,75,30.42,10.0,WSW,9.2,-,N/A,,Clear,240,2014-01-24 14:35:00
8:55 AM,20.3,12.0,70,30.41,10.0,WSW,15.0,-,N/A,,Clear,240,2014-01-24 14:55:00
9:15 AM,22.1,12.0,65,30.40,10.0,WSW,20.7,25.3,N/A,,Clear,250,2014-01-24 15:15:00
9:35 AM,24.1,11.8,60,30.41,10.0,WSW,19.6,23.0,N/A,,Clear,240,2014-01-24 15:35:00
9:55 AM,26.4,11.5,53,30.41,10.0,WSW,20.7,27.6,N/A,,Clear,250,2014-01-24 15:55:00
10:15 AM,28.4,11.5,49,30.40,10.0,WSW,21.9,-,N/A,,Clear,250,2014-01-24 16:15:00
10:35 AM,30.0,10.9,45,30.41,10.0,WSW,20.7,26.5,N/A,,Clear,250,2014-01-24 16:35:00
10:55 AM,32.0,11.8,43,30.39,10.0,WSW,19.6,-,N/A,,Clear,250,2014-01-24 16:55:00
11:15 AM,33.8,11.8,40,30.39,10.0,WSW,18.4,23.0,N/A,,Clear,250,2014-01-24 17:15:00
11:35 AM,36.0,12.2,38,30.36,10.0,WSW,19.6,-,N/A,,Clear,250,2014-01-24 17:35:00
11:55 AM,38.7,12.4,34,30.35,10.0,WSW,16.1,21.9,N/A,,Clear,240,2014-01-24 17:55:00
12:15 PM,40.3,12.7,33,30.35,10.0,WSW,15.0,-,N/A,,Clear,250,2014-01-24 18:15:00
12:35 PM,42.1,12.7,30,30.32,10.0,North,-9999.0,-,N/A,,Clear,0,2014-01-24 18:35:00
12:55 PM,44.2,13.1,28,30.31,10.0,WSW,17.3,21.9,N/A,,Clear,250,2014-01-24 18:55:00
1:15 PM,46.0,13.5,27,30.29,10.0,WSW,15.0,-,N/A,,Clear,250,2014-01-24 19:15:00
1:35 PM,47.7,12.9,25,30.27,10.0,WSW,12.7,20.7,N/A,,Clear,250,2014-01-24 19:35:00
1:55 PM,50.0,12.6,22,30.26,10.0,West,15.0,18.4,N/A,,Clear,260,2014-01-24 19:55:00
2:15 PM,52.7,12.2,20,30.24,10.0,West,12.7,-,N/A,,Clear,270,2014-01-24 20:15:00
2:35 PM,54.7,8.4,16,30.24,10.0,WNW,13.8,17.3,N/A,,Clear,290,2014-01-24 20:35:00
2:55 PM,55.4,7.2,14,30.23,10.0,West,10.4,17.3,N/A,,Clear,280,2014-01-24 20:55:00
3:15 PM,55.8,6.3,14,30.23,10.0,WNW,12.7,-,N/A,,Clear,290,2014-01-24 21:15:00
3:35 PM,55.8,5.7,13,30.22,10.0,West,10.4,-,N/A,,Clear,280,2014-01-24 21:35:00
3:55 PM,56.1,4.3,12,30.22,10.0,NW,10.4,-,N/A,,Clear,310,2014-01-24 21:55:00
4:15 PM,56.3,3.6,12,30.22,10.0,NW,10.4,-,N/A,,Clear,310,2014-01-24 22:15:00
4:35 PM,56.3,2.7,11,30.22,10.0,NW,11.5,-,N/A,,Clear,320,2014-01-24 22:35:00
4:55 PM,55.6,2.5,12,30.22,10.0,West,8.1,-,N/A,,Clear,280,2014-01-24 22:55:00
5:15 PM,54.9,3.2,12,30.21,10.0,West,6.9,-,N/A,,Clear,260,2014-01-24 23:15:00
5:35 PM,51.6,3.2,14,30.21,10.0,West,5.8,-,N/A,,Clear,260,2014-01-24 23:35:00
5:55 PM,48.4,3.2,16,30.22,10.0,WSW,6.9,-,N/A,,Clear,250,2014-01-24 23:55:00
6:15 PM,45.7,2.8,17,30.22,7.0,West,8.1,-,N/A,,Clear,260,2014-01-25 00:15:00
6:35 PM,36.9,0.7,22,30.22,10.0,WSW,9.2,-,N/A,,Clear,250,2014-01-25 00:35:00
6:55 PM,33.8,-0.4,23,30.22,10.0,North,-9999.0,-,N/A,,Clear,0,2014-01-25 00:55:00
7:15 PM,34.9,3.9,27,30.22,3.0,WSW,8.1,-,N/A,,Haze,250,2014-01-25 01:15:00
7:35 PM,31.8,1.8,28,30.22,10.0,West,12.7,-,N/A,,Clear,260,2014-01-25 01:35:00
7:55 PM,30.4,1.2,29,30.22,10.0,West,11.5,-,N/A,,Clear,260,2014-01-25 01:55:00
8:15 PM,28.8,1.0,31,30.22,10.0,WSW,8.1,-,N/A,,Clear,250,2014-01-25 02:15:00
8:35 PM,27.1,1.0,33,30.22,10.0,WSW,10.4,-,N/A,,Clear,250,2014-01-25 02:35:00
8:55 PM,27.5,2.5,34,30.22,10.0,WSW,10.4,-,N/A,,Clear,250,2014-01-25 02:55:00
9:15 PM,29.1,2.8,33,30.23,10.0,WSW,9.2,-,N/A,,Clear,250,2014-01-25 03:15:00
9:35 PM,30.0,6.4,37,30.23,10.0,WSW,9.2,-,N/A,,Clear,250,2014-01-25 03:35:00
9:55 PM,30.7,6.8,36,30.22,10.0,WSW,9.2,-,N/A,,Clear,250,2014-01-25 03:55:00
10:15 PM,28.2,6.8,40,30.23,10.0,West,9.2,-,N/A,,Clear,260,2014-01-25 04:15:00
10:35 PM,29.3,7.7,40,30.22,10.0,West,10.4,-,N/A,,Clear,260,2014-01-25 04:35:00
10:55 PM,28.4,8.4,43,30.22,10.0,WSW,8.1,-,N/A,,Clear,250,2014-01-25 04:55:00
11:15 PM,28.6,10.4,47,30.23,10.0,WSW,8.1,-,N/A,,Clear,240,2014-01-25 05:15:00
11:35 PM,27.7,9.5,46,30.23,10.0,West,9.2,-,N/A,,Clear,260,2014-01-25 05:35:00
11:55 PM,28.6,10.2,46,30.23,10.0,West,8.1,-,N/A,,Clear,260,2014-01-25 05:55:00